Location: Cran-Gévrier
(45.9039°N, 6.1012°E)
Time: 00:54:01
(UTC+00:00)

STRAND 1 - Pass Details

Date: 16 December 2023
Orbit: 766 x 778 km, 98.4° (Epoch: 03 March)

Event Time Altitude Azimuth Distance (km) Brightness Sun altitude
Rises 06:05:44 0° 194° (SSW) 3,226 ? -10.8°
Reaches altitude 10° 06:08:18 10° 205° (SSW) 2,302 ? -10.4°
Maximum altitude 06:12:42 29° 265° (W) 1,377 ? -9.7°
Drops below altitude 10° 06:17:07 10° 325° (NW) 2,314 ? -9.0°
Enters shadow 06:18:47 - 334° (NNW) 2,897 ? -8.7°
